SCP
0 0 0 0 0 0 0 0 0 0 0 0 0 0 0 0 0 0 0 0 0 0 0 0 0 0 0 0 0 0 0 0 0 0 0 0 0 0 0 0 -0 -0 -0 -0 -0 -0 -0 -0 0 0 0 0 -0 0
0 0 0 0 0 0 0 0 0 0 0 0 0 0 0 0 0 0 0 0 0 0 0 0 0 0 0 0 0 0 0 0 0 0 0 0 0 0 0 0 -0 -0 -0 -0 -0 0 0 -0 -0 -0 0 0 0 0
0 0 0 0 0 0 0 0 0 0 0 0 0 0 0 0 0 0 0 0 0 0 0 0 0 0 0 0 0 0 0 0 0 0 0 0 0 -0 0 0 0 0 0 0 0 0 0 0 0 0 0 0 0 0
0 0 0 0 0 0 0 0 0 0 0 0 0 0 0 0 0 0 0 0 0 0 0 0 0 0 0 0 0 0 0 0 0 0 0 0 0 0 -0 0 0 0 0 0 0 0 0 0 -0 0 0 0 0 0
0 0 0 0 0 0 0 0 0 0 0 0 0 0 0 0 0 0 0 0 0 0 0 0 0 0 0 0 0 0 0 0 0 0 0 0 0 0 0 0 0 0 0 0 0 0 0 0 0 0 0 0 0 0
0 0 0 0 0 0 0 0 0 0 0 0 0 0 0 0 0 0 0 0 0 0 0 0 0 0 0 0 0 0 0 0 0 0 0 0 0 0 0 0 -0 0 0 0 0 0 0 0 0 0 0 0 0 0
0 0 0 0 0 0 0 0 0 0 0 0 0 0 0 0 0 0 0 0 0 0 0 0 0 0 0 0 0 0 0 0 0 0 0 0 0 0 0 0 0 0 0 0 0 0 0 0 0 0 0 0 0 0
0 0 0 0 0 0 0 0 0 0 0 0 0 0 0 0 0 0 0 0 0 0 0 0 0 0 0 0 0 0 0 0 0 0 0 0 0 0 0 0 0 0 0 0 0 0 -0 0 -0 0 0 0 0 0
0 0 0 0 0 0 0 0 0 0 0 0 0 0 0 0 0 0 0 0 0 0 0 0 0 0 0 0 0 0 0 0 0 0 0 0 0 0 0 0 0 0 0 0 0 0 0 0 0 0 0 0 0 0
0 0 0 0 0 0 0 0 0 0 0 0 0 0 0 0 0 0 0 0 0 0 0 0 0 0 0 0 0 0 0 0 0 0 0 0 0 0 0 0 0 0 0 0 0 0 0 0 0 0 0 0 0 0
0 0 0 0 0 0 0 0 0 0 0 0 0 0 0 0 0 0 0 0 0 0 0 0 0 0 0 0 0 0 0 0 0 0 0 0 0 0 0 0 0 0 0 0 0 0 0 0 0 0 0 0 0 0
0 0 0 0 0 0 0 0 0 0 0 0 0 0 0 0 0 0 0 0 0 0 0 0 0 0 0 0 0 0 0 0 0 0 0 0 0 0 0 0 0 0 0 0 0 0 0 0 0 0 0 0 0 0
0 0 0 0 0 0 0 0 0 0 0 0 0 0 0 0 0 0 0 0 0 0 0 0 0 0 0 0 0 0 0 0 0 0 0 0 0 0 0 0 0 0 0 0 0 0 0 0 0 0 0 0 0 0
0 0 0 0 0 0 0 0 0 0 0 0 0 0 0 0 0 0 0 0 0 0 0 0 0 0 0 0 0 0 0 0 0 0 0 0 0 0 0 0 0 0 0 0 0 0 0 0 0 0 0 0 0 0
0 0 0 0 0 0 0 0 0 0 0 0 0 0 0 0 0 0 0 0 0 0 0 0 0 0 0 0 0 0 0 0 0 0 0 0 0 0 0 0 0 0 0 0 0 0 0 0 0 0 0 0 0 0
0 0 0 0 -0 0 0 0 0 0 0 0 0 0 0 0 0 0 0 0 0 0 0 0 0 0 0 0 0 0 0 0 0 0 0 0 0 0 0 0 0 0 0 0 0 0 0 0 0 0 0 0 0 0
0 0 -0 0 -0 -0 0 0 0 0 0 0 0 -0 0 0 0 0 0 0 0 0 0 0 0 0 0 0 0 0 0 0 0 0 0 0 0 0 0 0 0 0 0 0 0 0 0 0 0 0 0 0 0 0
0 0 0 0 0 0 0 0 0 0 0 0 0 0 -0 0 0 0 0 0 0 0 -0 0 0 0 0 0 0 0 0 0 0 0 0 0 0 0 0 0 0 0 0 0 0 0 0 0 0 0 0 0 0 0
0 0 0 -0 0 0 0 0 0 0 0 0 0 0 0 -0 0 0 0 0 0 0 0 0 0 0 0 0 0 0 0 0 0 0 0 0 0 0 0 0 0 0 0 0 0 0 0 0 0 0 0 0 0 0
0 0 0 0 0 0 0 0 0 0 0 0 0 -0 -0 0 -0 0 0 0 0 0 0 0 0 0 0 0 0 0 0 0 0 0 0 0 0 0 0 0 0 0 0 0 0 0 0 0 0 0 0 0 0 0
0 0 0 0 0 0 0 0 0 0 0 0 0 0 0 0 0 0 0 0 0 0 0 0 0 0 0 0 0 0 0 0 0 0 0 0 0 0 0 0 -0 -0 0 0 -0 -0 0 0 0 0 0 0 0 0
0 0 0 0 0 0 0 0 0 0 0 0 0 0 0 0 0 0 -0 0 0 0 0 0 0 0 0 0 0 0 0 0 0 0 0 0 0 0 0 0 0 -0 -0 -0 -0 -0 -0 -0 0 0 0 0 0 0
0 0 0 0 0 0 0 0 0 0 0 0 -0 0 0 -0 -0 0 0 0 0 -0 0 0 0 0 0 0 0 0 0 0 0 0 0 0 0 0 0 0 0 -0 -0 -0 -0 -0 -0 -0 -0 -0 -0 -0 0 0
0 0 0 0 0 0 0 0 0 0 0 -0 0 0 0 0 0 0 0 0 0 0 0 0 0 0 0 0 0 0 0 0 0 0 0 0 0 0 0 0 0 0 -0 0 -0 -0 -0 0 0 0 -0 0 -0 -0
0 0 0 0 0 0 -0 0 0 -0 -0 0 0 0 0 0 0 0 -0 -0 0 0 0 0 0 0 0 0 0 -0 0 0 0 0 0 0 0 0 0 0 0 0 -0 0 -0 -0 -0 -0 -0 -0 -0 -0 0 0
0 0 0 0 -0 -0 -0 -0 -0 -0 -0 -0 -0 -0 -0 -0 -0 -0 0 0 0 0 0 0 0 0 0 0 0 0 0 0 0 0 0 0 0 0 0 0 0 0 -0 0 0 -0 -0 -0 -0 -0 -0 -0 -0 -0
0 0 0 0 0 -0 0 0 -0 0 -0 -0 0 0 -0 0 0 0 -0 0 0 0 0 0 0 0 0 0 0 0 0 0 0 0 0 0 0 0 0 0 0 0 0 0 -0 -0 -0 -0 -0 0 0 0 -0 -0
0 0 -0 -0 -0 0 -0 0 0 0 0 0 -0 0 0 0 0 -0 0 0 0 0 0 0 0 0 0 -0 -0 0 0 0 0 0 0 0 0 0 0 0 -0 -0 -0 -0 0 -0 -0 -0 0 0 -0 0 -0 -0
0 0 0 -0 -0 0 0 0 0 0 -0 0 0 0 0 0 -0 0 0 0 0 0 0 0 0 0 0 -0 -0 0 0 0 0 0 0 0 0 0 0 0 -0 0 0 0 0 0 -0 -0 0 0 -0 0 -0 0
0 0 0 0 0 0 0 0 0 0 -0 -0 -0 0 0 0 0 0 0 0 0 0 -0 0 0 0 0 0 0 0 0 0 0 0 0 0 0 0 0 0 0 0 0 0 0 0 0 -0 -0 0 0 -0 -0 0
0 0 0 0 0 0 0 -0 -0 0 0 0 0 0 0 0 0 0 -0 0 0 0 0 0 0 0 0 0 0 0 0 0 0 0 0 0 0 0 0 -0 -0 0 0 0 0 0 0 0 0 0 -0 0 -0 0
0 0 0 0 0 0 0 -0 0 0 0 0 0 0 0 0 0 -0 -0 0 0 0 0 0 0 0 0 0 0 0 0 0 0 0 0 0 0 0 0 -0 -0 -0 0 0 0 0 -0 -0 0 0 -0 -0 -0 -0
-0 0 0 0 0 0 0 0 0 0 0 0 0 0 0 0 0 0 0 0 0 0 0 0 0 0 0 0 0 0 0 0 0 0 0 0 0 0 0 0 -0 -0 0 0 0 0 -0 -0 0 0 0 -0 -0 0
Wind_Speed_500mb
68 68 67 67 66 66 65 65 62 58 57 53 49 45 44 45 38 36 25 24 20 27 64 31 24 34 32 27 18 34 24 2 12 12 10 7 7 7 4 7 8 5 10 6 4 4 4 39 22 14 16 26 38 35
66 67 68 68 68 65 63 64 66 66 60 59 55 50 47 48 47 37 26 19 19 27 44 70 59 48 51 34 27 12 22 10 16 9 10 9 10 9 10 6 6 4 2 6 3 3 4 15 3 12 24 35 30 29
66 66 68 68 67 70 69 67 65 64 66 63 58 56 53 51 51 45 30 26 29 40 58 38 34 22 23 29 24 13 12 12 8 10 17 7 9 6 9 10 11 9 6 6 7 8 11 11 19 23 31 34 38 8
64 68 70 68 66 68 69 70 65 63 64 67 66 60 59 58 51 53 39 17 18 20 15 10 14 13 19 23 27 28 22 16 12 15 18 10 8 17 14 24 21 21 11 9 2 7 5 12 10 24 29 28 17 6
62 64 66 67 68 68 68 68 69 65 59 63 69 72 62 65 59 45 36 32 23 21 13 35 52 39 48 32 29 25 19 16 13 12 10 13 19 10 21 15 18 13 7 7 5 20 9 21 19 21 21 20 11 17
61 62 64 66 66 66 66 66 66 65 61 58 58 62 63 55 45 27 11 16 35 26 14 9 19 25 19 42 30 28 24 18 12 8 19 23 42 14 6 11 24 14 4 6 16 22 18 21 15 12 14 11 5 10
60 61 63 63 63 64 65 63 62 64 68 64 56 56 55 52 50 34 16 25 29 30 9 15 13 13 28 29 30 28 20 17 15 10 18 40 36 13 10 24 39 8 6 5 15 15 21 5 19 12 4 9 9 18
56 58 58 58 61 62 63 62 59 57 59 53 52 46 41 38 45 51 32 31 37 16 13 8 10 15 36 26 35 32 18 18 17 17 25 27 9 10 9 19 12 10 11 20 10 19 22 25 22 15 9 1 16 36
52 55 59 58 56 58 58 56 52 47 44 44 38 23 29 52 42 38 33 43 32 22 10 13 7 4 26 31 22 17 17 10 16 9 13 7 8 13 19 13 5 8 11 20 27 30 28 20 20 19 8 3 28 39
53 50 51 54 48 43 41 38 35 36 34 29 38 25 10 15 31 23 28 30 28 22 21 16 32 12 31 30 27 18 14 9 8 14 14 9 22 47 40 6 2 7 10 15 23 24 24 25 11 18 14 6 30 34
49 48 48 46 40 36 31 22 21 28 35 45 26 17 14 21 28 20 15 22 22 11 20 25 53 26 20 15 10 14 7 7 7 9 9 7 12 8 27 13 5 4 7 11 12 18 19 24 27 22 22 31 39 36
47 46 44 41 34 34 30 24 26 36 35 35 23 32 41 16 16 11 9 12 15 13 29 20 33 55 24 21 10 9 8 7 10 10 7 8 7 18 17 11 9 4 4 7 10 13 16 17 15 30 28 30 38 43
44 42 38 38 39 38 28 31 36 51 22 31 13 11 16 15 16 14 20 14 12 18 21 26 20 33 14 13 2 8 10 12 11 7 7 2 24 16 11 13 14 4 5 5 5 10 12 8 9 18 22 29 37 40
41 41 37 35 29 26 27 36 45 41 25 10 10 10 9 11 13 14 19 9 11 15 17 33 34 14 12 16 10 11 13 10 9 12 18 12 17 15 8 8 13 6 2 3 5 7 7 3 7 14 15 24 40 44
38 33 33 35 35 28 29 28 41 42 12 11 11 10 16 24 20 19 28 27 24 20 31 24 20 13 14 10 10 10 8 12 10 10 8 22 10 5 6 15 9 5 3 1 7 3 1 5 10 16 21 31 37 43
35 34 37 26 19 29 32 31 40 39 6 9 13 8 14 15 18 30 28 25 18 30 23 13 4 5 9 8 11 15 9 7 5 9 14 9 5 2 19 21 13 5 3 3 4 3 6 11 17 22 25 29 37 46
30 25 20 26 23 22 29 37 21 14 12 10 15 26 22 22 20 15 20 19 17 14 4 2 9 15 5 6 14 8 18 4 13 13 10 7 7 23 25 15 8 7 6 5 6 8 13 19 23 28 32 32 37 43
36 28 25 23 29 28 32 31 13 12 14 23 19 20 28 20 24 29 24 20 9 13 5 4 15 3 7 8 6 11 4 12 11 14 14 11 19 27 19 20 15 10 8 9 12 16 25 29 30 35 39 43 48 52
28 23 25 29 34 35 12 16 11 8 27 23 29 27 28 31 30 26 29 28 23 19 8 7 5 9 10 7 13 8 13 10 8 10 11 11 23 27 22 21 17 11 12 16 21 23 27 32 46 56 61 60 59 60
31 25 30 32 30 14 7 9 15 16 13 10 18 27 30 29 30 28 32 31 29 29 21 8 10 16 27 19 22 25 5 3 10 11 9 14 27 31 26 28 21 17 23 28 29 31 36 43 45 50 54 59 63 60
37 24 33 28 32 16 7 9 15 14 15 34 36 27 22 23 27 30 35 32 34 37 20 38 36 32 45 33 16 17 16 6 2 4 7 16 23 24 36 32 25 27 32 30 35 36 34 36 36 43 50 48 48 48
30 36 24 35 8 17 11 14 11 12 13 22 22 18 19 19 25 33 34 35 41 42 41 41 46 47 43 42 38 28 17 8 8 7 8 15 37 30 44 40 40 41 38 34 30 29 34 33 38 38 39 44 46 44
24 25 14 9 7 12 12 14 10 9 6 6 16 12 16 26 31 30 19 32 47 44 43 44 43 41 40 39 34 33 33 28 23 27 18 20 24 41 40 37 33 37 34 39 39 36 37 33 36 37 41 40 39 43
18 16 6 12 14 11 9 10 9 12 13 17 19 23 23 24 23 16 13 27 34 35 33 33 38 37 39 41 41 38 37 39 38 32 23 22 21 47 37 37 34 35 33 32 36 46 42 36 44 43 39 39 38 47
9 12 9 10 14 9 10 9 19 14 24 23 24 19 10 12 7 14 22 32 36 33 31 31 27 27 37 38 37 36 33 34 38 38 33 34 18 33 39 46 37 33 33 36 32 35 35 39 39 38 39 38 42 41
10 17 16 16 14 13 12 18 14 23 19 24 12 12 8 8 17 12 4 13 15 9 13 16 18 20 22 24 29 32 29 34 35 36 37 30 30 37 53 55 52 47 41 36 35 35 37 37 37 39 38 40 44 41
7 12 18 23 14 20 10 16 16 6 7 7 7 6 5 8 7 8 23 17 12 7 6 4 9 11 13 17 30 26 31 28 39 32 26 34 35 32 46 53 64 49 46 38 33 34 38 38 39 38 38 39 42 38
14 8 17 24 21 18 16 4 6 6 5 8 3 4 9 9 6 13 13 18 11 8 5 4 3 5 5 7 20 27 45 6 45 31 31 26 28 31 38 40 46 48 43 36 37 36 38 38 39 40 41 43 42 39
15 13 11 12 16 8 9 5 4 3 6 1 2 2 5 9 17 30 27 19 17 12 8 3 2 7 8 4 5 14 22 29 37 38 32 31 33 39 42 40 57 48 39 41 39 38 39 39 40 41 42 42 42 42
22 23 16 13 16 9 1 4 7 12 9 6 10 12 23 25 23 19 17 18 17 12 6 5 4 8 8 7 4 7 9 13 25 26 28 31 38 35 39 62 54 42 40 40 43 42 43 43 45 45 45 45 45 43
17 12 9 12 7 11 13 12 16 19 20 21 21 26 29 24 23 14 11 10 7 4 3 5 3 2 5 7 10 11 13 17 25 27 29 26 40 39 41 53 45 41 44 42 45 46 49 48 49 50 50 48 46 44
14 14 14 15 14 15 16 18 20 24 28 26 25 25 24 13 13 5 4 1 3 3 2 5 6 8 9 1 11 12 14 18 25 24 19 28 40 43 43 40 52 44 43 44 46 48 53 49 49 50 49 46 45 43
15 16 15 13 12 11 17 18 17 24 25 28 27 26 22 11 5 4 6 10 10 8 6 4 4 7 7 5 4 3 8 11 23 30 28 30 41 44 42 45 45 42 45 48 47 51 54 50 48 47 45 43 42 41
Wind_Direction_500mb
283 284 283 281 281 280 278 276 276 276 280 282 285 289 293 299 303 310 293 276 274 286 289 294 297 287 283 285 306 326 316 333 319 354 345 330 296 341 294 240 307 303 325 0 299 337 359 356 3 35 300 309 324 330
285 285 284 282 280 279 279 277 274 271 270 276 277 279 284 289 297 296 303 276 260 266 269 287 294 283 254 257 286 278 288 318 23 319 5 335 310 295 300 300 222 260 13 328 339 357 243 39 31 314 337 323 329 322
285 285 283 282 282 280 276 277 276 272 267 267 266 272 276 279 286 288 272 254 280 288 299 288 277 283 243 232 226 263 49 11 36 352 321 288 276 288 293 302 339 320 109 255 310 212 326 51 357 4 351 340 341 279
285 286 285 284 282 280 279 274 274 277 271 264 265 261 268 271 278 282 266 258 267 286 283 306 298 257 250 220 217 230 252 295 308 299 289 272 277 295 301 296 298 300 282 284 62 10 304 223 355 359 355 346 24 5
284 285 286 284 283 281 278 277 271 270 276 270 261 267 260 259 260 258 259 260 231 245 296 298 294 278 247 217 210 220 234 252 281 287 232 262 285 305 278 279 273 322 345 313 282 339 302 325 350 359 360 349 354 68
285 285 286 287 285 282 280 277 272 268 269 272 275 268 266 263 245 216 268 236 218 222 271 289 307 268 222 211 212 216 225 226 212 276 281 262 250 273 293 280 273 245 255 308 287 335 336 322 325 1 350 351 223 146
284 286 287 286 286 284 281 276 274 267 264 267 278 269 262 252 209 194 198 166 169 193 250 278 271 203 197 194 207 216 198 217 222 242 235 253 265 197 254 266 279 239 248 273 283 297 291 238 318 320 357 354 201 171
283 286 288 289 286 285 282 275 269 268 264 264 269 261 254 214 213 215 212 176 172 192 231 259 262 258 184 198 217 187 189 200 217 242 260 264 222 213 253 260 220 235 279 279 297 301 287 282 283 239 309 346 181 166
283 287 289 290 289 288 284 273 266 261 263 263 250 214 196 205 208 223 238 215 198 227 244 225 230 295 173 211 199 176 202 215 226 227 234 248 235 226 236 269 128 311 332 313 307 304 300 319 338 226 229 211 182 177
283 288 290 293 292 294 287 273 256 250 239 210 166 176 210 215 198 169 145 179 205 209 233 251 223 242 191 196 190 177 186 222 230 222 221 212 252 254 237 182 136 314 319 325 320 318 316 301 319 245 218 259 190 193
283 286 287 291 291 291 288 271 234 211 181 167 183 191 194 179 167 173 198 193 189 224 218 229 221 222 240 246 184 216 193 220 235 236 213 232 258 203 158 155 90 75 347 332 313 307 303 302 295 240 211 193 194 186
276 278 283 280 274 276 266 244 219 196 182 188 169 158 149 189 221 198 209 208 194 229 186 216 207 204 223 192 172 196 226 242 238 176 197 239 109 126 136 118 125 96 355 322 324 320 315 313 337 195 200 194 196 199
275 278 277 275 271 264 244 227 206 194 181 167 175 175 170 183 221 220 199 204 208 204 199 177 167 178 169 178 140 202 213 238 224 198 226 44 130 143 150 159 140 119 332 342 336 337 318 280 132 164 188 195 197 189
270 274 267 260 262 244 227 214 199 197 171 173 174 215 232 191 231 221 240 269 288 322 278 194 156 164 182 179 202 205 208 243 221 230 231 137 154 129 162 146 131 103 358 6 355 341 318 270 186 172 176 195 193 182
264 260 253 258 251 233 217 203 196 178 174 199 202 225 221 252 282 298 298 283 279 292 285 162 177 205 188 206 208 232 216 222 224 221 72 119 131 163 159 153 142 155 202 299 300 300 259 167 175 172 171 181 191 184
252 246 236 238 235 218 204 193 185 196 225 222 219 244 284 276 263 258 269 271 259 279 263 169 139 263 212 230 212 207 217 240 79 91 107 127 174 191 147 134 134 158 201 197 234 212 167 160 167 166 162 173 180 182
229 221 240 221 210 194 181 173 162 179 211 238 227 220 230 280 289 305 284 260 294 293 241 216 200 214 218 224 218 232 249 25 92 71 46 65 90 135 140 138 125 143 141 114 120 151 156 157 159 160 155 159 166 167
228 231 221 197 184 181 189 192 189 214 228 237 249 219 203 221 262 276 284 292 257 295 207 250 326 230 245 216 199 235 182 128 104 105 98 88 120 142 139 128 127 129 136 122 124 135 148 156 154 149 145 146 147 147
202 226 207 183 179 184 184 189 214 248 225 233 227 240 222 246 247 254 248 254 255 240 271 195 262 256 208 289 270 207 277 89 119 111 94 112 146 146 142 131 122 148 150 132 131 136 146 150 142 139 136 136 136 138
191 223 203 191 197 193 187 224 190 236 258 233 248 247 244 250 255 241 244 246 245 252 227 221 224 275 294 15 352 346 45 202 166 142 126 123 145 148 140 150 140 152 144 138 139 138 139 144 147 146 148 147 144 143
194 182 173 184 203 214 239 231 223 250 250 252 258 266 260 253 255 250 244 239 234 236 248 248 250 259 270 283 280 289 280 204 7 37 143 164 166 162 152 164 138 134 145 143 139 136 132 144 150 156 150 146 145 146
197 173 175 190 177 191 250 246 253 289 258 249 259 246 248 251 250 249 241 238 234 238 239 243 245 251 253 254 257 254 245 207 231 195 179 160 169 166 170 167 164 158 159 161 156 157 151 146 144 143 147 148 145 149
181 176 165 140 182 197 255 235 242 234 248 259 245 238 242 245 249 258 246 229 235 242 241 241 242 244 252 253 254 243 234 221 223 234 198 193 188 179 177 180 172 167 165 169 161 152 148 145 144 140 139 136 141 144
142 167 174 195 210 212 229 210 232 249 249 260 269 267 272 275 269 260 259 269 267 255 253 244 231 233 232 228 239 242 228 224 225 227 204 183 162 184 182 181 176 177 171 166 161 152 149 152 155 158 154 156 159 151
140 188 204 222 214 212 193 204 228 247 251 256 265 262 262 267 264 268 269 267 259 244 243 236 223 237 247 238 224 229 226 219 220 217 200 188 180 191 189 179 175 169 174 178 167 155 158 161 163 163 164 161 161 162
220 197 196 206 193 207 211 240 224 231 245 253 249 266 265 288 262 247 281 325 311 334 203 212 214 234 249 234 229 224 223 216 212 205 187 181 200 199 199 187 184 184 177 178 174 166 165 166 167 166 166 165 164 163
241 208 202 223 215 218 239 246 246 200 250 258 263 293 311 237 246 37 352 12 2 17 72 187 213 214 233 238 237 245 236 226 203 205 201 191 196 196 192 188 196 199 175 185 184 178 173 170 169 168 167 166 166 167
249 265 212 205 222 241 246 243 282 299 316 16 60 294 328 340 329 343 310 337 336 356 335 271 252 256 269 201 237 238 219 229 153 165 166 167 183 184 181 188 186 163 178 185 183 178 177 174 173 171 169 167 167 169
239 252 217 222 219 198 242 254 219 155 193 204 131 274 280 277 287 298 306 299 303 312 303 299 289 211 228 235 180 202 234 160 160 153 158 156 167 174 177 184 168 172 186 181 177 177 175 174 172 172 169 167 166 167
243 236 245 240 240 216 206 244 267 316 316 224 218 269 287 297 299 312 283 281 277 275 299 298 279 229 231 233 222 191 172 154 167 168 184 182 174 167 173 170 163 167 169 171 171 170 172 167 168 168 167 166 169 169
222 229 212 231 274 271 260 261 275 278 276 271 267 266 284 310 315 302 287 270 266 266 33 345 357 324 252 241 231 212 197 186 183 202 196 177 169 164 165 172 174 172 171 172 172 172 170 167 169 170 171 172 175 175
212 222 244 257 265 264 267 271 280 284 281 271 261 261 263 262 282 290 4 264 122 95 72 64 64 58 30 4 226 225 206 194 185 193 181 171 171 166 170 175 169 173 175 172 173 172 171 171 172 174 176 179 181 182
220 221 222 241 256 254 256 258 264 270 251 247 252 257 269 263 267 119 73 56 74 68 55 2 332 295 287 278 345 342 229 202 190 187 198 191 180 174 176 171 171 172 174 173 173 172 173 174 175 178 181 183 185 187
Wind_Speed_850mb
68 68 67 67 66 66 65 65 62 58 57 53 49 45 44 45 38 36 25 24 20 27 64 31 24 34 32 27 18 34 24 2 12 12 10 7 7 7 4 7 8 5 10 6 4 4 4 39 22 14 16 26 38 35
66 67 68 68 68 65 63 64 66 66 60 59 55 50 47 48 47 37 26 19 19 27 44 70 59 48 51 34 27 12 22 10 16 9 10 9 10 9 10 6 6 4 2 6 3 3 4 15 3 12 24 35 30 29
66 66 68 68 67 70 69 67 65 64 66 63 58 56 53 51 51 45 30 26 29 40 58 38 34 22 23 29 24 13 12 12 8 10 17 7 9 6 9 10 11 9 6 6 7 8 11 11 19 23 31 34 38 8
64 68 70 68 66 68 69 70 65 63 64 67 66 60 59 58 51 53 39 17 18 20 15 10 14 13 19 23 27 28 22 16 12 15 18 10 8 17 14 24 21 21 11 9 2 7 5 12 10 24 29 28 17 6
62 64 66 67 68 68 68 68 69 65 59 63 69 72 62 65 59 45 36 32 23 21 13 35 52 39 48 32 29 25 19 16 13 12 10 13 19 10 21 15 18 13 7 7 5 20 9 21 19 21 21 20 11 17
61 62 64 66 66 66 66 66 66 65 61 58 58 62 63 55 45 27 11 16 35 26 14 9 19 25 19 42 30 28 24 18 12 8 19 23 42 14 6 11 24 14 4 6 16 22 18 21 15 12 14 11 5 10
60 61 63 63 63 64 65 63 62 64 68 64 56 56 55 52 50 34 16 25 29 30 9 15 13 13 28 29 30 28 20 17 15 10 18 40 36 13 10 24 39 8 6 5 15 15 21 5 19 12 4 9 9 18
56 58 58 58 61 62 63 62 59 57 59 53 52 46 41 38 45 51 32 31 37 16 13 8 10 15 36 26 35 32 18 18 17 17 25 27 9 10 9 19 12 10 11 20 10 19 22 25 22 15 9 1 16 36
52 55 59 58 56 58 58 56 52 47 44 44 38 23 29 52 42 38 33 43 32 22 10 13 7 4 26 31 22 17 17 10 16 9 13 7 8 13 19 13 5 8 11 20 27 30 28 20 20 19 8 3 28 39
53 50 51 54 48 43 41 38 35 36 34 29 38 25 10 15 31 23 28 30 28 22 21 16 32 12 31 30 27 18 14 9 8 14 14 9 22 47 40 6 2 7 10 15 23 24 24 25 11 18 14 6 30 34
49 48 48 46 40 36 31 22 21 28 35 45 26 17 14 21 28 20 15 22 22 11 20 25 53 26 20 15 10 14 7 7 7 9 9 7 12 8 27 13 5 4 7 11 12 18 19 24 27 22 22 31 39 36
47 46 44 41 34 34 30 24 26 36 35 35 23 32 41 16 16 11 9 12 15 13 29 20 33 55 24 21 10 9 8 7 10 10 7 8 7 18 17 11 9 4 4 7 10 13 16 17 15 30 28 30 38 43
44 42 38 38 39 38 28 31 36 51 22 31 13 11 16 15 16 14 20 14 12 18 21 26 20 33 14 13 2 8 10 12 11 7 7 2 24 16 11 13 14 4 5 5 5 10 12 8 9 18 22 29 37 40
41 41 37 35 29 26 27 36 45 41 25 10 10 10 9 11 13 14 19 9 11 15 17 33 34 14 12 16 10 11 13 10 9 12 18 12 17 15 8 8 13 6 2 3 5 7 7 3 7 14 15 24 40 44
38 33 33 35 35 28 29 28 41 42 12 11 11 10 16 24 20 19 28 27 24 20 31 24 20 13 14 10 10 10 8 12 10 10 8 22 10 5 6 15 9 5 3 1 7 3 1 5 10 16 21 31 37 43
35 34 37 26 19 29 32 31 40 39 6 9 13 8 14 15 18 30 28 25 18 30 23 13 4 5 9 8 11 15 9 7 5 9 14 9 5 2 19 21 13 5 3 3 4 3 6 11 17 22 25 29 37 46
30 25 20 26 23 22 29 37 21 14 12 10 15 26 22 22 20 15 20 19 17 14 4 2 9 15 5 6 14 8 18 4 13 13 10 7 7 23 25 15 8 7 6 5 6 8 13 19 23 28 32 32 37 43
36 28 25 23 29 28 32 31 13 12 14 23 19 20 28 20 24 29 24 20 9 13 5 4 15 3 7 8 6 11 4 12 11 14 14 11 19 27 19 20 15 10 8 9 12 16 25 29 30 35 39 43 48 52
28 23 25 29 34 35 12 16 11 8 27 23 29 27 28 31 30 26 29 28 23 19 8 7 5 9 10 7 13 8 13 10 8 10 11 11 23 27 22 21 17 11 12 16 21 23 27 32 46 56 61 60 59 60
31 25 30 32 30 14 7 9 15 16 13 10 18 27 30 29 30 28 32 31 29 29 21 8 10 16 27 19 22 25 5 3 10 11 9 14 27 31 26 28 21 17 23 28 29 31 36 43 45 50 54 59 63 60
37 24 33 28 32 16 7 9 15 14 15 34 36 27 22 23 27 30 35 32 34 37 20 38 36 32 45 33 16 17 16 6 2 4 7 16 23 24 36 32 25 27 32 30 35 36 34 36 36 43 50 48 48 48
30 36 24 35 8 17 11 14 11 12 13 22 22 18 19 19 25 33 34 35 41 42 41 41 46 47 43 42 38 28 17 8 8 7 8 15 37 30 44 40 40 41 38 34 30 29 34 33 38 38 39 44 46 44
24 25 14 9 7 12 12 14 10 9 6 6 16 12 16 26 31 30 19 32 47 44 43 44 43 41 40 39 34 33 33 28 23 27 18 20 24 41 40 37 33 37 34 39 39 36 37 33 36 37 41 40 39 43
18 16 6 12 14 11 9 10 9 12 13 17 19 23 23 24 23 16 13 27 34 35 33 33 38 37 39 41 41 38 37 39 38 32 23 22 21 47 37 37 34 35 33 32 36 46 42 36 44 43 39 39 38 47
9 12 9 10 14 9 10 9 19 14 24 23 24 19 10 12 7 14 22 32 36 33 31 31 27 27 37 38 37 36 33 34 38 38 33 34 18 33 39 46 37 33 33 36 32 35 35 39 39 38 39 38 42 41
10 17 16 16 14 13 12 18 14 23 19 24 12 12 8 8 17 12 4 13 15 9 13 16 18 20 22 24 29 32 29 34 35 36 37 30 30 37 53 55 52 47 41 36 35 35 37 37 37 39 38 40 44 41
7 12 18 23 14 20 10 16 16 6 7 7 7 6 5 8 7 8 23 17 12 7 6 4 9 11 13 17 30 26 31 28 39 32 26 34 35 32 46 53 64 49 46 38 33 34 38 38 39 38 38 39 42 38
14 8 17 24 21 18 16 4 6 6 5 8 3 4 9 9 6 13 13 18 11 8 5 4 3 5 5 7 20 27 45 6 45 31 31 26 28 31 38 40 46 48 43 36 37 36 38 38 39 40 41 43 42 39
15 13 11 12 16 8 9 5 4 3 6 1 2 2 5 9 17 30 27 19 17 12 8 3 2 7 8 4 5 14 22 29 37 38 32 31 33 39 42 40 57 48 39 41 39 38 39 39 40 41 42 42 42 42
22 23 16 13 16 9 1 4 7 12 9 6 10 12 23 25 23 19 17 18 17 12 6 5 4 8 8 7 4 7 9 13 25 26 28 31 38 35 39 62 54 42 40 40 43 42 43 43 45 45 45 45 45 43
17 12 9 12 7 11 13 12 16 19 20 21 21 26 29 24 23 14 11 10 7 4 3 5 3 2 5 7 10 11 13 17 25 27 29 26 40 39 41 53 45 41 44 42 45 46 49 48 49 50 50 48 46 44
14 14 14 15 14 15 16 18 20 24 28 26 25 25 24 13 13 5 4 1 3 3 2 5 6 8 9 1 11 12 14 18 25 24 19 28 40 43 43 40 52 44 43 44 46 48 53 49 49 50 49 46 45 43
15 16 15 13 12 11 17 18 17 24 25 28 27 26 22 11 5 4 6 10 10 8 6 4 4 7 7 5 4 3 8 11 23 30 28 30 41 44 42 45 45 42 45 48 47 51 54 50 48 47 45 43 42 41
Wind_Direction_850mb
283 284 283 281 281 280 278 276 276 276 280 282 285 289 293 299 303 310 293 276 274 286 289 294 297 287 283 285 306 326 316 333 319 354 345 330 296 341 294 240 307 303 325 0 299 337 359 356 3 35 300 309 324 330
285 285 284 282 280 279 279 277 274 271 270 276 277 279 284 289 297 296 303 276 260 266 269 287 294 283 254 257 286 278 288 318 23 319 5 335 310 295 300 300 222 260 13 328 339 357 243 39 31 314 337 323 329 322
285 285 283 282 282 280 276 277 276 272 267 267 266 272 276 279 286 288 272 254 280 288 299 288 277 283 243 232 226 263 49 11 36 352 321 288 276 288 293 302 339 320 109 255 310 212 326 51 357 4 351 340 341 279
285 286 285 284 282 280 279 274 274 277 271 264 265 261 268 271 278 282 266 258 267 286 283 306 298 257 250 220 217 230 252 295 308 299 289 272 277 295 301 296 298 300 282 284 62 10 304 223 355 359 355 346 24 5
284 285 286 284 283 281 278 277 271 270 276 270 261 267 260 259 260 258 259 260 231 245 296 298 294 278 247 217 210 220 234 252 281 287 232 262 285 305 278 279 273 322 345 313 282 339 302 325 350 359 360 349 354 68
285 285 286 287 285 282 280 277 272 268 269 272 275 268 266 263 245 216 268 236 218 222 271 289 307 268 222 211 212 216 225 226 212 276 281 262 250 273 293 280 273 245 255 308 287 335 336 322 325 1 350 351 223 146
284 286 287 286 286 284 281 276 274 267 264 267 278 269 262 252 209 194 198 166 169 193 250 278 271 203 197 194 207 216 198 217 222 242 235 253 265 197 254 266 279 239 248 273 283 297 291 238 318 320 357 354 201 171
283 286 288 289 286 285 282 275 269 268 264 264 269 261 254 214 213 215 212 176 172 192 231 259 262 258 184 198 217 187 189 200 217 242 260 264 222 213 253 260 220 235 279 279 297 301 287 282 283 239 309 346 181 166
283 287 289 290 289 288 284 273 266 261 263 263 250 214 196 205 208 223 238 215 198 227 244 225 230 295 173 211 199 176 202 215 226 227 234 248 235 226 236 269 128 311 332 313 307 304 300 319 338 226 229 211 182 177
283 288 290 293 292 294 287 273 256 250 239 210 166 176 210 215 198 169 145 179 205 209 233 251 223 242 191 196 190 177 186 222 230 222 221 212 252 254 237 182 136 314 319 325 320 318 316 301 319 245 218 259 190 193
283 286 287 291 291 291 288 271 234 211 181 167 183 191 194 179 167 173 198 193 189 224 218 229 221 222 240 246 184 216 193 220 235 236 213 232 258 203 158 155 90 75 347 332 313 307 303 302 295 240 211 193 194 186
276 278 283 280 274 276 266 244 219 196 182 188 169 158 149 189 221 198 209 208 194 229 186 216 207 204 223 192 172 196 226 242 238 176 197 239 109 126 136 118 125 96 355 322 324 320 315 313 337 195 200 194 196 199
275 278 277 275 271 264 244 227 206 194 181 167 175 175 170 183 221 220 199 204 208 204 199 177 167 178 169 178 140 202 213 238 224 198 226 44 130 143 150 159 140 119 332 342 336 337 318 280 132 164 188 195 197 189
270 274 267 260 262 244 227 214 199 197 171 173 174 215 232 191 231 221 240 269 288 322 278 194 156 164 182 179 202 205 208 243 221 230 231 137 154 129 162 146 131 103 358 6 355 341 318 270 186 172 176 195 193 182
264 260 253 258 251 233 217 203 196 178 174 199 202 225 221 252 282 298 298 283 279 292 285 162 177 205 188 206 208 232 216 222 224 221 72 119 131 163 159 153 142 155 202 299 300 300 259 167 175 172 171 181 191 184
252 246 236 238 235 218 204 193 185 196 225 222 219 244 284 276 263 258 269 271 259 279 263 169 139 263 212 230 212 207 217 240 79 91 107 127 174 191 147 134 134 158 201 197 234 212 167 160 167 166 162 173 180 182
229 221 240 221 210 194 181 173 162 179 211 238 227 220 230 280 289 305 284 260 294 293 241 216 200 214 218 224 218 232 249 25 92 71 46 65 90 135 140 138 125 143 141 114 120 151 156 157 159 160 155 159 166 167
228 231 221 197 184 181 189 192 189 214 228 237 249 219 203 221 262 276 284 292 257 295 207 250 326 230 245 216 199 235 182 128 104 105 98 88 120 142 139 128 127 129 136 122 124 135 148 156 154 149 145 146 147 147
202 226 207 183 179 184 184 189 214 248 225 233 227 240 222 246 247 254 248 254 255 240 271 195 262 256 208 289 270 207 277 89 119 111 94 112 146 146 142 131 122 148 150 132 131 136 146 150 142 139 136 136 136 138
191 223 203 191 197 193 187 224 190 236 258 233 248 247 244 250 255 241 244 246 245 252 227 221 224 275 294 15 352 346 45 202 166 142 126 123 145 148 140 150 140 152 144 138 139 138 139 144 147 146 148 147 144 143
194 182 173 184 203 214 239 231 223 250 250 252 258 266 260 253 255 250 244 239 234 236 248 248 250 259 270 283 280 289 280 204 7 37 143 164 166 162 152 164 138 134 145 143 139 136 132 144 150 156 150 146 145 146
197 173 175 190 177 191 250 246 253 289 258 249 259 246 248 251 250 249 241 238 234 238 239 243 245 251 253 254 257 254 245 207 231 195 179 160 169 166 170 167 164 158 159 161 156 157 151 146 144 143 147 148 145 149
181 176 165 140 182 197 255 235 242 234 248 259 245 238 242 245 249 258 246 229 235 242 241 241 242 244 252 253 254 243 234 221 223 234 198 193 188 179 177 180 172 167 165 169 161 152 148 145 144 140 139 136 141 144
142 167 174 195 210 212 229 210 232 249 249 260 269 267 272 275 269 260 259 269 267 255 253 244 231 233 232 228 239 242 228 224 225 227 204 183 162 184 182 181 176 177 171 166 161 152 149 152 155 158 154 156 159 151
140 188 204 222 214 212 193 204 228 247 251 256 265 262 262 267 264 268 269 267 259 244 243 236 223 237 247 238 224 229 226 219 220 217 200 188 180 191 189 179 175 169 174 178 167 155 158 161 163 163 164 161 161 162
220 197 196 206 193 207 211 240 224 231 245 253 249 266 265 288 262 247 281 325 311 334 203 212 214 234 249 234 229 224 223 216 212 205 187 181 200 199 199 187 184 184 177 178 174 166 165 166 167 166 166 165 164 163
241 208 202 223 215 218 239 246 246 200 250 258 263 293 311 237 246 37 352 12 2 17 72 187 213 214 233 238 237 245 236 226 203 205 201 191 196 196 192 188 196 199 175 185 184 178 173 170 169 168 167 166 166 167
249 265 212 205 222 241 246 243 282 299 316 16 60 294 328 340 329 343 310 337 336 356 335 271 252 256 269 201 237 238 219 229 153 165 166 167 183 184 181 188 186 163 178 185 183 178 177 174 173 171 169 167 167 169
239 252 217 222 219 198 242 254 219 155 193 204 131 274 280 277 287 298 306 299 303 312 303 299 289 211 228 235 180 202 234 160 160 153 158 156 167 174 177 184 168 172 186 181 177 177 175 174 172 172 169 167 166 167
243 236 245 240 240 216 206 244 267 316 316 224 218 269 287 297 299 312 283 281 277 275 299 298 279 229 231 233 222 191 172 154 167 168 184 182 174 167 173 170 163 167 169 171 171 170 172 167 168 168 167 166 169 169
222 229 212 231 274 271 260 261 275 278 276 271 267 266 284 310 315 302 287 270 266 266 33 345 357 324 252 241 231 212 197 186 183 202 196 177 169 164 165 172 174 172 171 172 172 172 170 167 169 170 171 172 175 175
212 222 244 257 265 264 267 271 280 284 281 271 261 261 263 262 282 290 4 264 122 95 72 64 64 58 30 4 226 225 206 194 185 193 181 171 171 166 170 175 169 173 175 172 173 172 171 171 172 174 176 179 181 182
220 221 222 241 256 254 256 258 264 270 251 247 252 257 269 263 267 119 73 56 74 68 55 2 332 295 287 278 345 342 229 202 190 187 198 191 180 174 176 171 171 172 174 173 173 172 173 174 175 178 181 183 185 187